This is the latest recevied weather packets stored in our database for station/object DK0KTL-4. If no packets are shown the sender has not sent any weather packets the latest 10 day(s).
| Time | Temp. | Humidity | Pressure | Rain* | Wind** | Luminosity | Snow |
|---|---|---|---|---|---|---|---|
| 1777885760 | 21.67° C | 46% | 1012.8 hPa | 0 mm | - | - | - |
| 1777885459 | 21.11° C | 47% | 1013 hPa | 0 mm | - | - | - |
| 1777884822 | 20.56° C | 48% | 1013.1 hPa | 0 mm | - | - | - |
| 1777884559 | 20.56° C | 49% | 1013.1 hPa | 0 mm | - | - | - |
| 1777884258 | 20.56° C | 48% | 1013.1 hPa | 0 mm | - | - | - |
| 1777883658 | 20.56° C | 48% | 1013 hPa | 0 mm | - | - | - |
| 1777883358 | 20.56° C | 50% | 1012.9 hPa | 0 mm | - | - | - |
| 1777883057 | 20° C | 51% | 1013.1 hPa | 0 mm | - | - | - |
| 1777882757 | 20° C | 50% | 1013 hPa | 0 mm | - | - | - |
| 1777882457 | 20° C | 49% | 1013 hPa | 0 mm | - | - | - |
| 1777881556 | 19.44° C | 52% | 1012.9 hPa | 0 mm | - | - | - |
| 1777880355 | 18.33° C | 50% | 1012.8 hPa | 0 mm | - | - | - |
| 1777879754 | 17.78° C | 56% | 1012.7 hPa | 0 mm | - | - | - |
| 1777879454 | 17.78° C | 58% | 1012.7 hPa | 0 mm | - | - | - |
| 1777878853 | 16.67° C | 60% | 1012.7 hPa | 0 mm | - | - | - |
| 1777878553 | 16.67° C | 62% | 1012.7 hPa | 0 mm | - | - | - |
| 1777878252 | 16.67° C | 63% | 1012.7 hPa | 0 mm | - | - | - |
| 1777877652 | 16.11° C | 68% | 1012.6 hPa | 0 mm | - | - | - |
| 1777877051 | 15.56° C | 66% | 1012.6 hPa | 0 mm | - | - | - |
| 1777876751 | 15.56° C | 67% | 1012.7 hPa | 0 mm | - | - | - |
| 1777876451 | 15.56° C | 67% | 1012.7 hPa | 0 mm | - | - | - |
| 1777876150 | 15.56° C | 69% | 1012.6 hPa | 0 mm | - | - | - |
| 1777875850 | 15° C | 69% | 1012.6 hPa | 0 mm | - | - | - |
| 1777875550 | 15° C | 70% | 1012.5 hPa | 0 mm | - | - | - |
| 1777875249 | 15° C | 71% | 1012.6 hPa | 0 mm | - | - | - |
* Rain latest hour (hover to see other rain measurements)
** Current wind speed in m/s (hover to see current wind gust speed)